Aktas

Kazakhstan     49˚46′42″N   72˚57′50″E
temp.,
°C
wind,
m/s
gust,
m/s
humid.,
%
clouds,
%
prec.,
mm/h
press.,
hPa
HPBL,
m
1 december, tue
tue100:00−21˚e47940 0.0 105189
03:00−21˚ene58920 0.0 1050108
06:00−20˚e57900 0.0 105191
09:00−19˚e45880 0.0 105075
12:00−13˚e57850 0.0 1050202
15:00−12˚e610840 0.0 1048272
18:00−14˚ene815880 0.0 1048300
21:00−13˚e816840 0.0 1048353
2 december, wed
wed200:00−14˚e815850 0.0 1048280
03:00−15˚e713840 0.0 1046214
06:00−15˚e713830 0.0 1046228
09:00−15˚e714830 0.0 1045233
12:00−12˚e711820 0.0 1043272
15:00−11˚e6108219 0.0 1041225
18:00−14˚e610849 0.0 1040140
21:00−15˚e58790 0.0 103991
3 december, thu
thu300:00−15˚e45710 0.0 103855
03:00−15˚e446640 0.0 103640
06:00−15˚e346566 0.0 103629
09:00−14˚ese446891 0.0 103536
12:00−10˚ese467696 0.0 1034205
15:00−8˚ese3680100 0.0 1033216
18:00−9˚e3384100 0.0 103252
21:00−10˚ese3383100 0.0 103254
4 december, fri
fri400:00−10˚ese239297 0.1 103155
03:00−10˚ese129596 0.1 103127
06:00−10˚ene229693 0.3 103129
09:00−11˚e239596 0.1 103129
12:00−9˚ene239498 0.2 1031152
15:00−9˚ene239595 0.0 1032101
18:00−13˚ne349598 0.1 103349
21:00−15˚ene349599 0.0 103446
5 december, sat
sat500:00−16˚e229691 0.1 103522
03:00−17˚ene239874 0.0 103523
06:00−17˚ene239887 0.1 103623
09:00−18˚ene3398100 0.0 103630
12:00−14˚e359493 0.1 1036170
15:00−13˚ene35927 0.0 1036150
18:00−16˚e44934 0.0 103741
21:00−17˚e34920 0.0 103834